Wind_Speed
66 70 81 87 86 87 88 89 94 92 89 85 85 87 83 83 83 83 82 82 80 74 76 76 78 81 72 67 66 66 63 63 65 64 63 62 60 61 60 63 64 61 60 60 61
60 64 70 76 81 89 92 94 98 100 95 92 90 87 88 87 86 84 86 88 86 78 79 82 84 84 81 79 71 66 64 64 72 71 65 63 64 64 61 62 65 60 62 63 63
62 65 67 71 72 80 85 89 99 98 96 97 98 97 94 92 92 90 89 90 88 83 84 87 87 87 86 84 77 73 61 69 68 67 64 67 69 67 65 64 64 58 63 64 64
54 59 64 69 71 74 79 84 92 96 97 96 99 99 100 94 96 91 95 95 96 91 84 82 83 88 88 85 87 79 68 73 71 73 69 70 68 69 63 65 61 58 62 62 65
51 55 58 62 68 73 75 79 83 84 87 89 92 95 95 97 90 90 90 94 98 100 95 90 87 87 88 88 93 80 76 75 73 77 76 72 70 68 67 69 63 62 62 64 65
43 47 52 56 62 67 71 76 80 82 85 86 89 92 94 91 89 89 88 88 92 97 96 96 94 97 93 86 88 83 79 76 78 76 70 70 74 66 69 71 66 64 63 66 65
41 44 50 55 58 62 67 72 74 76 79 82 85 89 90 80 83 86 96 97 94 97 99 99 98 101 97 94 86 80 79 82 82 78 75 76 69 68 72 71 65 63 65 68 66
49 51 53 56 58 62 67 71 75 76 78 81 83 84 80 82 83 84 91 97 98 94 95 96 99 95 94 92 92 91 82 73 69 75 77 78 59 66 72 70 66 66 68 63 62
59 61 63 64 67 70 72 73 75 77 79 81 82 84 80 83 84 86 87 90 99 92 94 99 97 92 91 88 83 75 71 70 67 65 75 76 72 63 70 66 65 65 65 60 60
68 69 72 75 76 77 79 82 84 85 84 85 84 81 79 83 83 84 91 88 93 92 93 93 92 90 86 77 73 77 78 76 73 75 81 74 65 69 71 69 65 64 64 60 57
74 75 76 80 83 87 89 93 96 94 95 94 91 89 85 84 81 83 94 93 94 95 88 85 89 75 74 83 82 85 84 81 76 77 79 78 70 65 66 68 66 62 60 58 54
78 80 85 87 92 94 96 99 104 106 102 104 103 98 95 93 85 83 91 95 95 91 91 90 73 67 80 79 80 79 76 73 74 73 78 75 72 65 64 62 63 58 58 55 53
80 85 91 97 100 102 105 107 108 108 110 111 110 107 105 101 94 93 92 91 90 91 86 80 56 81 80 76 72 67 64 68 72 75 73 70 66 59 60 58 60 57 57 53 52
79 85 92 96 102 105 108 110 107 109 110 111 118 112 109 109 105 102 96 95 90 86 83 80 72 74 72 66 65 61 71 69 64 61 59 61 51 54 59 55 57 57 54 51 50
78 85 93 97 100 102 104 103 99 100 93 104 111 122 118 114 108 111 108 104 95 91 89 66 64 61 59 54 65 65 70 65 59 56 52 50 35 51 55 58 58 52 49 49 48
87 92 96 96 95 96 97 96 96 94 97 99 97 107 118 122 116 114 114 111 103 96 87 80 73 76 61 69 66 65 58 53 50 50 41 38 37 52 59 55 49 48 49 46 42
89 90 91 91 90 83 79 77 78 77 85 89 92 103 106 110 121 116 120 109 108 99 92 85 74 68 62 57 53 46 47 44 42 39 29 38 34 52 52 42 41 43 43 40 28
81 74 69 66 63 62 60 57 59 61 63 66 69 75 88 104 106 117 118 120 111 104 98 89 79 65 58 53 49 49 47 39 35 27 36 33 36 47 37 34 38 37 30 22 22
69 62 55 52 51 50 49 49 49 50 54 59 59 59 68 81 96 112 116 120 116 110 104 97 84 74 66 61 57 51 37 43 28 21 32 30 35 42 30 32 28 20 18 21 24
61 56 50 44 42 40 43 41 41 44 49 51 51 55 59 68 79 91 112 116 121 117 105 96 86 71 68 68 59 47 42 27 22 27 32 34 41 43 27 20 17 16 20 21 23
54 51 48 41 38 34 34 32 35 38 41 43 47 51 54 60 66 77 94 115 120 116 105 98 90 81 74 57 52 43 33 29 26 33 37 38 39 34 21 16 16 19 21 24 22
50 47 44 39 33 30 27 26 28 31 34 38 41 45 49 56 62 69 83 99 118 114 110 103 92 83 62 64 59 51 41 33 29 38 39 35 36 23 16 19 20 22 22 23 20
48 43 41 36 29 27 23 21 23 25 28 32 35 39 47 53 58 63 73 85 108 115 111 105 96 84 78 64 59 43 37 32 29 33 34 34 31 19 27 23 21 24 21 22 15
45 41 37 34 27 23 19 16 18 20 24 27 30 34 39 47 52 56 67 78 95 116 111 103 91 84 70 59 55 48 42 36 34 37 36 36 25 28 30 25 23 22 21 20 14
46 42 36 33 26 20 16 14 13 16 21 24 25 29 33 40 48 58 65 74 89 109 112 100 90 83 72 62 59 54 51 45 37 43 39 37 32 33 30 24 22 19 21 18 14
50 45 39 33 28 20 16 12 11 13 16 19 22 25 29 37 46 53 54 67 83 99 110 101 92 84 76 65 62 58 52 45 46 45 44 38 37 33 31 27 19 19 25 19 14
53 50 42 34 29 23 15 12 9 11 12 15 19 23 26 34 40 45 50 63 76 94 108 104 94 88 80 67 66 62 55 50 53 50 49 43 44 38 31 26 22 21 28 20 14
Wind_Direction
240 240 237 237 238 239 238 241 241 243 246 247 250 248 248 249 250 250 253 253 254 258 259 259 262 261 261 265 264 258 260 264 271 272 275 280 281 286 288 288 289 292 299 298 299
245 245 242 243 243 241 245 244 241 241 246 248 247 246 249 249 249 249 250 254 256 256 257 258 261 263 263 263 264 264 262 264 271 273 276 279 282 284 288 287 288 297 298 297 300
249 248 247 247 246 245 246 246 240 245 246 249 248 249 249 248 250 251 249 251 255 254 256 256 258 259 263 263 266 264 266 265 269 272 276 280 285 285 285 285 286 297 292 295 300
249 249 249 250 249 249 246 245 245 248 249 253 251 249 249 253 251 254 254 254 255 253 250 254 259 259 259 261 263 265 265 267 267 273 277 281 282 282 285 283 283 294 289 293 297
254 255 252 250 250 249 249 249 248 248 250 251 251 251 252 254 256 253 254 254 255 256 252 248 254 254 256 258 260 263 265 264 267 273 277 277 273 278 282 281 291 291 288 291 294
258 255 254 255 255 253 252 252 250 250 250 249 249 250 252 253 253 254 253 255 256 256 257 255 253 253 251 257 262 264 264 266 270 273 274 273 270 279 273 283 290 288 287 290 294
264 262 259 254 252 250 250 251 251 251 252 251 250 250 247 250 250 254 252 251 253 256 257 257 255 255 256 256 256 260 263 264 268 268 267 266 267 272 274 281 283 284 286 289 292
270 266 263 260 257 255 252 249 248 249 251 251 250 250 249 250 253 251 250 250 252 254 255 258 257 259 259 258 259 262 268 269 267 264 262 261 266 271 270 278 281 282 283 287 290
271 269 263 261 260 258 256 254 252 250 248 247 249 250 247 246 249 250 250 251 249 252 254 254 256 259 259 260 260 265 269 265 261 256 256 260 263 264 270 275 276 278 283 290 293
266 265 260 256 257 256 254 253 252 249 247 247 245 243 242 243 243 246 248 247 250 249 250 253 256 258 259 260 262 257 256 257 258 259 263 267 269 262 264 269 277 281 284 287 289
264 262 261 259 257 254 255 254 251 248 247 247 245 243 240 238 240 242 249 249 249 250 250 251 252 258 257 256 255 259 260 261 260 260 267 271 270 265 266 274 274 279 280 283 284
270 269 268 262 259 256 256 252 252 251 248 247 245 244 241 241 238 238 244 247 248 249 248 249 254 254 254 255 255 257 261 261 257 259 264 265 269 268 268 269 273 273 275 280 281
273 270 270 269 265 263 259 254 253 254 252 250 252 248 245 243 240 238 238 243 246 247 249 250 244 247 251 255 259 260 261 258 258 260 264 266 268 269 268 266 270 269 272 274 277
275 272 269 268 267 265 263 262 262 258 252 248 250 251 248 246 243 238 237 238 242 246 245 245 244 250 253 256 259 258 254 256 262 267 270 271 268 263 260 259 261 262 266 274 278
280 274 271 269 269 269 269 269 268 265 264 257 250 247 247 246 245 241 240 239 238 239 243 243 242 246 249 250 251 253 259 266 272 272 271 273 266 258 253 250 253 261 269 270 274
285 284 283 282 280 277 275 273 270 267 262 256 252 250 246 243 243 241 241 240 236 236 238 238 235 238 238 245 251 258 267 270 270 269 268 253 241 249 247 249 252 258 261 266 270
295 293 289 286 283 279 275 271 268 263 258 256 250 246 245 243 241 238 241 240 239 236 236 236 235 236 239 247 251 258 263 263 262 263 239 236 240 245 246 245 248 254 253 262 270
305 300 295 291 285 281 278 271 265 260 255 250 247 240 240 237 236 236 234 236 236 234 231 231 231 232 236 240 245 241 245 258 262 260 222 233 219 243 244 242 242 246 254 260 277
312 307 301 294 287 281 275 269 263 257 251 248 245 241 234 232 230 230 231 232 231 232 228 228 226 226 224 226 231 235 239 241 258 240 223 222 197 237 228 230 237 239 256 266 270
318 313 307 301 294 285 275 271 264 256 249 245 241 236 231 230 226 224 224 225 226 228 231 226 225 223 224 225 229 233 234 256 250 223 212 199 213 233 220 219 224 247 256 266 269
323 317 312 309 302 292 282 273 260 249 245 242 238 233 229 227 226 221 218 218 221 222 222 223 224 224 224 227 230 232 229 228 219 199 204 207 215 212 216 212 234 244 256 269 267
329 323 318 314 312 302 290 275 261 250 242 235 232 230 228 225 223 219 216 215 216 218 218 220 220 222 218 219 220 218 220 224 215 204 205 209 215 200 209 226 237 247 259 253 260
334 330 324 321 322 310 298 277 259 247 240 236 231 224 221 221 220 217 214 213 212 214 215 217 218 218 219 219 221 223 226 221 205 204 211 211 214 206 225 233 247 258 243 245 249
342 339 335 329 331 318 304 282 266 250 238 230 226 220 217 214 217 214 212 208 207 210 211 213 214 219 216 213 215 216 220 219 209 198 207 216 213 212 227 236 250 232 237 240 227
356 352 347 337 338 328 315 293 265 247 236 227 219 215 213 211 213 211 209 206 203 207 206 206 209 212 212 211 212 212 214 208 200 201 211 211 213 228 239 246 226 223 228 230 218
2 0 357 349 343 340 322 303 269 243 234 228 219 214 212 211 211 214 209 205 202 201 203 203 205 208 211 209 210 211 210 210 201 205 215 221 223 227 234 234 227 228 216 208 219
9 6 1 357 348 346 333 315 284 257 225 218 222 214 211 211 208 209 205 204 201 197 199 200 202 205 210 207 206 208 209 205 203 211 220 224 221 230 239 241 246 219 210 200 209
Height
10748 10752 10755 10759 10762 10765 10768 10771 10775 10779 10784 10788 10792 10797 10800 10805 10808 10813 10815 10803 10812 10826 10829 10831 10828 10833 10839 10846 10851 10856 10864 10866 10862 10860 10862 10864 10865 10863 10866 10862 10857 10860 10861 10859 10853
10737 10740 10743 10746 10749 10752 10755 10757 10759 10763 10769 10772 10777 10780 10785 10789 10792 10801 10791 10793 10799 10813 10813 10815 10816 10815 10827 10833 10840 10843 10853 10856 10844 10849 10854 10853 10855 10854 10856 10854 10846 10853 10848 10847 10844
10725 10728 10730 10732 10733 10736 10738 10740 10744 10748 10751 10756 10760 10764 10768 10772 10777 10783 10783 10778 10781 10797 10796 10799 10802 10804 10812 10819 10825 10828 10848 10838 10840 10836 10846 10843 10843 10843 10845 10841 10840 10848 10839 10835 10833
10712 10712 10713 10715 10716 10718 10721 10724 10727 10729 10733 10738 10742 10747 10751 10755 10765 10766 10764 10760 10762 10769 10780 10781 10786 10789 10796 10804 10801 10818 10832 10827 10830 10826 10832 10832 10832 10827 10835 10829 10834 10837 10832 10828 10821
10702 10701 10701 10700 10700 10701 10702 10705 10707 10710 10713 10717 10721 10726 10729 10739 10752 10737 10742 10742 10742 10746 10760 10768 10770 10772 10780 10783 10784 10813 10819 10813 10819 10816 10819 10820 10816 10819 10816 10811 10825 10825 10820 10817 10813
10693 10690 10688 10687 10686 10686 10686 10686 10687 10688 10692 10695 10699 10706 10713 10730 10714 10711 10725 10726 10725 10726 10734 10746 10753 10751 10759 10774 10777 10793 10801 10806 10806 10807 10802 10805 10800 10815 10799 10803 10812 10811 10810 10806 10803
10680 10677 10675 10674 10672 10670 10668 10667 10668 10671 10672 10674 10679 10686 10696 10704 10690 10691 10706 10705 10705 10709 10718 10722 10724 10737 10750 10761 10771 10779 10787 10793 10797 10794 10790 10779 10799 10801 10793 10792 10801 10799 10797 10796 10793
10665 10662 10658 10655 10654 10652 10651 10650 10652 10654 10654 10655 10657 10663 10678 10675 10673 10672 10673 10688 10690 10692 10698 10699 10706 10722 10741 10749 10758 10764 10772 10782 10781 10777 10769 10760 10800 10787 10777 10784 10790 10789 10785 10785 10781
10648 10644 10640 10637 10634 10632 10630 10630 10632 10633 10634 10635 10638 10643 10653 10654 10652 10649 10656 10663 10665 10678 10680 10679 10691 10708 10719 10734 10743 10757 10761 10762 10760 10756 10745 10751 10779 10777 10765 10774 10781 10778 10775 10775 10771
10626 10621 10617 10613 10611 10608 10606 10606 10605 10606 10607 10610 10617 10623 10629 10630 10632 10628 10633 10642 10643 10654 10663 10670 10678 10693 10707 10719 10735 10729 10730 10735 10742 10740 10731 10747 10767 10764 10758 10763 10768 10767 10764 10764 10763
10600 10595 10591 10587 10583 10581 10579 10577 10575 10578 10581 10584 10592 10599 10605 10607 10614 10614 10613 10623 10626 10632 10651 10655 10662 10690 10689 10694 10703 10705 10715 10723 10726 10725 10727 10735 10745 10754 10751 10754 10755 10757 10753 10753 10752
10573 10567 10560 10554 10549 10546 10544 10541 10542 10548 10558 10553 10558 10573 10578 10581 10602 10597 10597 10599 10606 10619 10622 10636 10669 10667 10663 10673 10683 10694 10707 10711 10710 10714 10714 10719 10729 10739 10740 10742 10744 10745 10742 10742 10741
10547 10539 10528 10518 10512 10510 10507 10502 10508 10512 10529 10527 10530 10546 10551 10561 10576 10573 10579 10580 10586 10593 10611 10626 10657 10635 10646 10660 10673 10684 10689 10688 10692 10694 10707 10714 10722 10727 10727 10730 10731 10731 10730 10731 10730
10516 10506 10494 10484 10475 10471 10466 10466 10472 10476 10493 10495 10495 10507 10521 10533 10546 10548 10560 10563 10568 10582 10592 10609 10622 10632 10641 10656 10659 10669 10659 10668 10683 10691 10700 10701 10717 10713 10708 10717 10716 10716 10720 10722 10722
10486 10472 10457 10447 10441 10436 10431 10433 10437 10440 10455 10457 10471 10470 10483 10502 10513 10520 10529 10538 10556 10561 10570 10614 10612 10619 10631 10639 10637 10648 10650 10664 10674 10681 10688 10688 10702 10686 10691 10698 10699 10709 10713 10712 10712
10453 10439 10427 10416 10409 10402 10396 10396 10398 10405 10415 10411 10428 10430 10446 10466 10477 10492 10502 10517 10534 10545 10563 10578 10591 10592 10616 10617 10628 10639 10646 10655 10661 10666 10676 10672 10679 10670 10673 10685 10695 10699 10700 10703 10701
10425 10406 10390 10379 10368 10361 10358 10358 10358 10365 10364 10374 10383 10394 10404 10427 10444 10468 10473 10499 10518 10533 10550 10559 10579 10590 10601 10612 10620 10632 10636 10642 10648 10655 10661 10656 10667 10658 10666 10679 10685 10688 10692 10693 10693
10386 10370 10356 10345 10337 10330 10327 10329 10328 10332 10335 10341 10348 10361 10370 10392 10411 10432 10447 10467 10491 10515 10525 10541 10558 10582 10596 10607 10614 10621 10624 10636 10641 10646 10649 10651 10656 10652 10666 10675 10676 10680 10683 10686 10686
10356 10342 10332 10321 10314 10309 10306 10304 10305 10309 10311 10315 10326 10337 10346 10354 10374 10397 10419 10446 10472 10488 10503 10518 10544 10562 10576 10588 10597 10610 10627 10622 10637 10642 10644 10649 10652 10648 10661 10664 10670 10675 10677 10679 10679
10334 10321 10311 10302 10295 10291 10285 10286 10287 10289 10291 10298 10307 10316 10325 10335 10348 10369 10388 10419 10441 10461 10493 10512 10531 10553 10563 10572 10589 10607 10614 10627 10634 10638 10639 10643 10645 10644 10655 10662 10666 10669 10671 10674 10671
10320 10306 10295 10286 10280 10276 10272 10271 10270 10272 10276 10284 10291 10299 10309 10318 10332 10347 10360 10384 10411 10442 10477 10495 10517 10533 10547 10578 10590 10602 10614 10621 10626 10632 10635 10637 10636 10644 10651 10657 10661 10665 10668 10668 10665
10307 10295 10283 10274 10269 10264 10261 10258 10258 10260 10264 10269 10276 10286 10296 10305 10313 10328 10346 10367 10396 10427 10460 10474 10501 10521 10557 10559 10572 10587 10602 10612 10617 10621 10626 10628 10631 10642 10647 10650 10655 10659 10661 10661 10659
10298 10286 10274 10265 10260 10254 10251 10249 10248 10250 10255 10261 10268 10277 10283 10293 10302 10317 10334 10355 10383 10412 10440 10462 10488 10513 10528 10548 10565 10589 10600 10607 10613 10617 10622 10624 10629 10637 10641 10645 10650 10652 10654 10654 10655
10292 10279 10268 10258 10253 10247 10244 10242 10243 10245 10248 10253 10259 10267 10275 10285 10295 10311 10322 10343 10370 10395 10427 10456 10485 10508 10532 10549 10564 10579 10590 10597 10605 10611 10612 10616 10624 10632 10634 10640 10645 10647 10649 10650 10652
10287 10275 10264 10255 10249 10244 10240 10238 10238 10239 10242 10247 10254 10260 10268 10278 10287 10294 10308 10330 10353 10380 10419 10451 10476 10499 10518 10536 10551 10566 10574 10584 10596 10598 10604 10610 10619 10624 10630 10637 10641 10643 10645 10646 10649
10284 10271 10262 10253 10247 10243 10238 10235 10234 10234 10238 10244 10250 10256 10264 10271 10279 10291 10311 10327 10342 10375 10410 10440 10466 10484 10506 10524 10540 10554 10566 10579 10587 10590 10593 10601 10612 10621 10626 10633 10638 10640 10641 10644 10646
10285 10272 10260 10254 10246 10242 10238 10235 10234 10233 10236 10242 10247 10253 10261 10266 10276 10289 10307 10322 10342 10368 10396 10424 10452 10470 10493 10513 10526 10544 10557 10568 10575 10580 10589 10598 10605 10614 10622 10630 10633 10635 10637 10641 10644